Location: Krasnoyarskiy Pitomnik
(51.1333°N, 71.6167°E)
Time: 11:14:54
(UTC+00:00)

Altair - Pass Details

Date: 17 April 2024
Orbit: 1502 x 1682 km, 47.2° (Epoch: 23 May)

Event Time Altitude Azimuth Distance (km) Brightness Sun altitude
Rises 20:59:27 0° 287° (WNW) 4,805 10.0 -23.8°
Reaches altitude 10° 21:02:55 10° 279° (W) 3,790 9.3 -23.6°
Enters shadow 21:10:20 34° 229° (SW) 2,329 7.9 -23.0°
Exits shadow 21:17:16 17° 165° (SSE) 3,148 8.8 -22.4°
Drops below altitude 10° 21:19:15 10° 158° (SSE) 3,671 9.2 -22.2°
Sets 21:22:34 0° 149° (SSE) 4,637 9.8 -21.9°
